This demonstration page uses our WeatherBlox Daily Observations layout. Learn more.

Left ArrowRight Arrow

Hourly Observations for January 3, 2017

Temp ( °F °C ) Dew Point ( °F °C ) Humidity (%) Winds ( mph kmh ) Pressure ( in mb ) Visibility ( mi km ) Precip ( " mm )
12:02 am 00:02 Cloudy with Mist and Fog 47 8.3 46 7.8 97 97 N 5 7 30.15 1021 2 3 0.00 0.00
12:14 am 00:14 Cloudy with Mist and Fog 48 8.9 46 7.8 93 93 NNW 5 7 30.12 1020 2 3 0.00 0.00
12:28 am 00:28 Cloudy with Mist and Fog 47 8.3 46 7.8 97 97 N 5 7 30.12 1020 2 2 0.00 0.00
12:59 am 00:59 Cloudy with Mist and Fog 47 8.3 45 7.2 93 93 N 6 9 30.11 1020 1 2 0.00 0.00
1:45 am 01:45 Cloudy with Mist and Fog 47 8.3 45 7.2 93 93 N 6 9 30.09 1019 1 2 0.00 0.00
1:59 am 01:59 Cloudy with Mist and Fog 47 8.3 45 7.2 93 93 N 6 9 30.10 1019 1 2 0.00 0.00
2:22 am 02:22 Cloudy with Mist and Fog 47 8.3 45 7.2 93 93 N 7 11 30.09 1019 1 2 0.00 0.00
2:48 am 02:48 Cloudy with Mist and Fog 47 8.3 45 7.2 93 93 NNE 10 17 30.06 1018 1 2 0.00 0.00
2:59 am 02:59 Cloudy with Mist and Fog 47 8.3 44 6.7 90 90 NNE 10 17 30.07 1018 1 2 0.00 0.00
3:09 am 03:09 Cloudy with Mist and Fog 46 7.8 44 6.7 93 93 N 12 19 30.06 1018 2 3 0.00 0.00
3:32 am 03:32 Cloudy with Mist and Fog 46 7.8 45 7.2 96 96 N 9 15 30.06 1018 2 2 0.00 0.00
3:59 am 03:59 Cloudy with Mist and Fog 46 7.8 44 6.7 93 93 NNE 9 15 30.04 1017 2 2 0.00 0.00
4:39 am 04:39 Cloudy with Mist and Fog 46 7.8 45 7.2 96 96 NNE 10 17 30.00 1016 3 5 0.00 0.00
4:59 am 04:59 Cloudy with Mist and Fog 46 7.8 44 6.7 93 93 NE 9 15 30.00 1016 4 6 0.00 0.00
5:59 am 05:59 Cloudy with Mist and Fog 46 7.8 45 7.2 96 96 NE 7 11 29.97 1015 3 4 0.00 0.00
6:35 am 06:35 Cloudy with Mist and Fog 47 8.3 45 7.2 93 93 NE 7 11 29.91 1013 2 3 0.00 0.00
6:53 am 06:53 Cloudy with Mist and Fog 46 8 45 7 93 93 ENE 7 11 29.91 1013 2 3 0.00 0.00
6:59 am 06:59 Cloudy with Mist and Fog 47 8.3 45 7.2 93 93 ENE 7 11 29.92 1013 2 3 0.00 0.00
7:33 am 07:33 Cloudy with Mist and Fog 48 8.9 46 7.8 93 93 E 7 11 29.91 1013 3 5 0.00 0.00
7:43 am 07:43 Cloudy with Mist and Fog 48 8.9 46 7.8 93 93 ENE 8 13 29.91 1013 2 3 0.00 0.00
7:59 am 07:59 Mostly Cloudy with Fog 48 8.9 46 7.8 93 93 E 7 11 29.90 1012 1 1 0.00 0.00
8:22 am 08:22 Mostly Cloudy with Light Rain 48 8.9 47 8.3 96 96 ESE 8 13 29.88 1012 0 0 0.01 0.25
8:25 am 08:25 Mostly Cloudy with Light Rain 48 8.9 47 8.3 96 96 ESE 8 13 29.88 1012 1 1 0.02 0.51
8:33 am 08:33 Mostly Cloudy with Light Rain 49 9.4 47 8.3 93 93 E 7 11 29.88 1012 1 1 0.03 0.76
8:44 am 08:44 Mostly Cloudy with Heavy Rain 49 9.4 47 8.3 93 93 ESE 7 11 29.88 1012 1 2 0.04 1.02
8:52 am 08:52 Cloudy with Light Rain 49 9.4 48 8.9 97 97 Calm 29.88 1012 1 2 0.05 1.27
8:56 am 08:56 Cloudy with Light Rain 48 9 48 9 100 100 ESE 5 7 29.88 1012 2 3 0.06 1.52
8:59 am 08:59 Cloudy with Light Rain 49 9.4 48 8.9 97 97 E 6 9 29.87 1012 4 6 0.07 1.78
9:05 am 09:05 Cloudy with Light Rain 50 10 48 8.9 93 93 SE 3 6 29.88 1012 2 3 0.01 0.25
9:16 am 09:16 Cloudy with Light Rain 50 10 49 9.4 96 96 WNW 7 11 29.88 1012 3 5 0.03 0.76
9:19 am 09:19 Cloudy with Light Rain 50 10 48 8.9 93 93 WNW 12 19 29.88 1012 3 5 0.03 0.76
9:27 am 09:27 Cloudy with Rain 50 10 48 8.9 93 93 W 8 13 29.88 1012 2 3 0.04 1.02
9:38 am 09:38 Cloudy with Light Rain 49 9.4 47 8.3 93 93 N 6 9 29.88 1012 2 3 0.06 1.52
9:50 am 09:50 Cloudy with Mist and Fog 49 9.4 48 8.9 97 97 SE 3 6 29.88 1012 6 10 0.08 2.03
9:59 am 09:59 Cloudy with Mist and Fog 50 10 50 10 100 100 S 3 6 29.86 1011 6 10 0.10 2.54
10:15 am 10:15 Cloudy with Mist and Fog 51 10.6 49 9.4 92 92 Calm 29.85 1011 5 8 0.02 0.51
10:36 am 10:36 Cloudy with Mist and Fog 51 10.6 49 9.4 92 92 E 3 6 29.83 1010 6 10 0.04 1.02
10:59 am 10:59 Cloudy with Mist and Fog 52 11.1 50 10 93 93 WSW 5 7 29.83 1010 6 10 0.05 1.27
11:59 am 11:59 Cloudy with Mist and Fog 51 10.6 49 9.4 92 92 W 6 9 29.78 1009 3 4 0.00 0.00
12:59 pm 12:59 Cloudy with Mist and Fog 51 10.6 49 9.4 92 92 W 6 9 29.74 1007 2 3 0.00 0.00
1:26 pm 13:26 Cloudy with Mist and Fog 53 11.7 51 10.6 93 93 W 3 6 29.71 1006 1 1 0.00 0.00
1:59 pm 13:59 Cloudy with Mist and Fog 54 12.2 51 10.6 90 90 W 7 11 29.71 1006 1 1 0.00 0.00
2:16 pm 14:16 Cloudy with Mist and Fog 54 12.2 52 11.1 93 93 W 7 11 29.71 1006 4 6 0.00 0.00
2:36 pm 14:36 Cloudy 56 13.3 53 11.7 90 90 WSW 9 15 29.68 1005 8 13 0.00 0.00
2:59 pm 14:59 Cloudy 56 13.3 53 11.7 90 90 WSW 12 19 29.68 1005 9 14 0.00 0.00
3:59 pm 15:59 Cloudy 56 13.3 52 11.1 87 87 WSW 9 15 29.68 1005 10 16 0.00 0.00
4:52 pm 16:52 Cloudy 54 12.2 51 10.6 90 90 W 7 11 29.68 1005 10 16 0.00 0.00
4:59 pm 16:59 Cloudy 54 12.2 51 10.6 90 90 W 6 9 29.66 1005 10 16 0.00 0.00
5:59 pm 17:59 Cloudy 54 12.2 51 10.6 90 90 WSW 7 11 29.66 1004 10 16 0.00 0.00
6:59 pm 18:59 Cloudy 55 12.8 51 10.6 87 87 WSW 10 17 29.67 1005 10 16 0.00 0.00
7:59 pm 19:59 Cloudy 55 12.8 51 10.6 87 87 SW 9 15 29.66 1004 10 16 0.00 0.00
8:59 pm 20:59 Cloudy 55 12.8 51 10.6 87 87 WSW 9 15 29.65 1004 10 16 0.00 0.00
9:59 pm 21:59 Mostly Cloudy 55 12.8 51 10.6 87 87 WSW 8 13 29.64 1004 10 16 0.00 0.00
10:59 pm 22:59 Mostly Cloudy 55 12.8 51 10.6 87 87 SW 10 17 29.63 1003 10 16 0.00 0.00
11:59 pm 23:59 Mostly Cloudy 55 12.8 51 10.6 87 87 SW 10 17 29.61 1003 10 16 0.00 0.00

Powered by AerisWeather